www.pogodaiklimat.ru

Погода и климат >> Архив погоды >> Филиппины >> Гуиуан


ПОГОДА в Гуиуане

  • Прогноз погоды в Гуиуане
  • Монитор погоды в Гуиуане

АРХИВ ПОГОДЫ в Гуиуане

Время (UTC), дата Ветер
(напр.,м/с)
 
Видим.   Явления Облачность Т
(С)
Тd
(С)
f
(%)
Тe
(С)
Тes
(С)
Комфортность P
(гПа)
Po
(гПа)
Тmin
(С)
Tmax
(С)
R
(мм)
R24
(мм)
S
(см)
15 18.06 СВ 4 16 км осадки на расстоянии {туман} 8/6 450 м
[Cb cap Ac As Cs]
+28.0 +25.9 88 +42 +42 опасность
перегрева
1012.9 1006.0
18 18.06 В 2 16 км осадки на расстоянии {туман} 5/4 450 м
[Cb cap Ac As]
+27.6 +25.0 86 +40 +40 очень
душно
1011.1 1004.3
21 18.06 В 4 16 км осадки на расстоянии {туман} 6/5 450 м
[Cb cap Cs]
+27.2 +24.8 87 +39 +39 очень
душно
1011.1 1004.2
00 19.06 В 4 18 км в посл. час ливневой дождь {туман} 8/5 450 м
[Cb cap Ac As Cc]
+29.6 +27.6 89 +48 +50 опасность
перегрева
1011.8 1005.0 +24.0 1
03 19.06 В 4 18 км мгла {туман} 6/4 450 м
[Cb cap Cc]
+30.6 +28.3 88 +52 +59 опасность
перегрева
1011.6 1004.8
06 19.06 В 4 20 км мгла {туман} 4/4 450 м
[Cb cap]
+31.6 +28.3 83 +53 +59 опасность
перегрева
1010.6 1003.8
09 19.06 В 4 18 км мгла {туман} 6/4 450 м
[Cb cap Ac As]
+30.0 +26.9 84 +47 +48 опасность
перегрева
1010.0 1003.2
12 19.06 В 3 16 км мгла {туман} 5/3 450 м
[Cb cap Cs]
+28.2 +25.8 87 +42 +42 опасность
перегрева
1010.4 1003.6 +33.0
15 19.06 ЮВ 3 16 км мгла {туман} 5/3 540 м
[Cu med, cong Cs]
+28.0 +25.1 84 +40 +40 очень
душно
1010.9 1004.0
18 19.06 Ю 2 16 км осадки на расстоянии {туман} 5/4 450 м
[Cb cap Cs]
+27.2 +25.1 88 +39 +39 очень
душно
1010.3 1003.5
21 19.06 СЗ 3 16 км осадки на расстоянии {туман} 6/5 450 м
[Cb calv Cs]
+26.4 +25.4 94 +38 +38 очень
душно
1010.3 1003.4
00 20.06 В 2 18 км осадки на расстоянии {ливн. осадки} 5/5 450 м
[Cb calv Ac As]
+29.3 +27.6 91 +48 +52 опасность
перегрева
1011.5 1004.7 +25.5 0.3
03 20.06 В 2 20 км мгла {туман} 5/4 450 м
[Cb cap Cs]
+32.2 +27.6 77 +52 +64 опасность
перегрева
1011.2 1004.4
06 20.06 В 2 20 км осадки на расстоянии {туман} 6/5 450 м
[Cb calv Cs]
+31.0 +28.5 87 +53 +60 опасность
перегрева
1009.8 1003.0
09 20.06 В 2 20 км мгла {туман} 5/4 450 м
[Cb calv Cs]
+29.6 +27.3 87 +47 +48 опасность
перегрева
1009.5 1002.7
12 20.06 ЮВ 2 18 км {туман} 5/3 540 м
[Cu med, cong Cs]
+28.6 +26.3 87 +43 +43 опасность
перегрева
1011.1 1004.3 +34.5
15 20.06 В 2 18 км 4/4 540 м
[Cu hum]
+27.8 +26.5 93 +43 +43 опасность
перегрева
1011.5 1004.6
18 20.06 ЮВ 2 18 км 4/4 540 м
[Cu hum]
+27.8 +26.0 90 +42 +42 опасность
перегрева
1010.8 1004.0
21 20.06 ЮВ 1 18 км осадки на расстоянии 5/4 450 м
[Cb calv Cs]
+27.6 +26.3 93 +42 +42 опасность
перегрева
1010.6 1003.7
00 21.06 Ю 3 20 км осадки на расстоянии {туман} 5/4 450 м
[Cb cap Cs]
+29.4 +26.4 84 +45 +49 опасность
перегрева
1011.4 1004.6 +26.3
03 21.06 ЮЗ 3 20 км осадки на расстоянии {туман} 6/4 450 м
[Cb calv Cc]
+31.0 +27.4 81 +49 +59 опасность
перегрева
1011.1 1004.3
06 21.06 ЮВ 3 20 км мгла {туман} 5/3 450 м
[Cb calv Cc]
+30.8 +28.4 87 +52 +60 опасность
перегрева
1009.4 1002.6
09 21.06 ЮВ 3 20 км мгла {туман} 5/3 450 м
[Cb calv Cc]
+29.7 +27.5 88 +48 +49 опасность
перегрева
1009.9 1003.1
12 21.06 ЮВ 3 18 км мгла {туман} 8/4 450 м
[Cb calv Cs]
+28.4 +26.6 90 +44 +44 опасность
перегрева
1012.2 1005.4 +34.3
15 21.06 ЮЗ 3 16 км мгла {туман} 5/3 450 м
[Cb calv Cs]
+28.0 +26.2 90 +42 +42 опасность
перегрева
1012.1 1005.2
18 21.06 З 4 16 км 6/3 540 м
[Cu med, cong Ac As Cs]
+27.4 +25.8 91 +41 +41 опасность
перегрева
1009.4 1002.6
21 21.06 З 4 16 км 5/4 450 м
[Cb cap Cs]
+27.2 +25.6 91 +40 +40 очень
душно
1008.9 1002.0
00 22.06 З 3 18 км мгла {туман} 9/4 450 м
[Cb cap Ac As Cs]
+28.2 +26.2 89 +43 +45 опасность
перегрева
1011.4 1004.6 +27.1
03 22.06 В 2 20 км мгла {туман} 8/6 450 м
[Cb calv Ac As Cs]
+31.0 +27.2 80 +49 +55 опасность
перегрева
1011.2 1004.4
06 22.06 ЮВ 2 20 км мгла {туман} 9/5 450 м
[Cb cap Ac As Cs]
+30.5 +27.4 84 +49 +53 опасность
перегрева
1008.5 1001.7
09 22.06 В 2 20 км мгла {туман} 10/4 450 м
[Cb cap Ac As]
+30.0 +26.8 83 +47 +47 опасность
перегрева
1008.6 1001.8
12 22.06 Ю 3 18 км осадки на расстоянии {туман} 9/4 450 м
[Cb cap Ac As]
+29.0 +25.9 83 +43 +43 опасность
перегрева
1009.8 1003.0 +33.4
15 22.06 Ю 3 16 км осадки на расстоянии {ливн. осадки} 10/6 450 м
[Cb cap Ac As]
+28.0 +25.9 88 +42 +42 опасность
перегрева
1010.4 1003.5 0.0
18 22.06 З 2 16 км осадки на расстоянии {ливн. осадки} 9/5 450 м
[Cb cap Ac As]
+27.8 +26.4 92 +42 +42 опасность
перегрева
1008.9 1002.1 0.0
21 22.06 З 2 16 км осадки на расстоянии 8/5 450 м
[Cb cap Ac trans Cs]
+27.5 +25.8 90 +41 +41 опасность
перегрева
1009.1 1002.2
00 23.06 ЮВ 2 16 км слаб. ливневой дождь 10/5 450 м
[Cb cap Ac As]
+27.5 +25.5 89 +40 +42 очень
душно
1010.9 1004.1 +25.7 2
03 23.06 Ю 2 16 км в посл. час ливневой дождь {туман} 10/5 450 м
[Cb cap Ac As]
+26.2 +25.3 95 +38 +41 очень
душно
1010.3 1003.4 1
06 23.06 С 1 16 км осадки на расстоянии {ливн. осадки, туман} 10/6 450 м
[Cb cap Ac As]
+27.0 +25.0 89 +39 +41 очень
душно
1010.0 1003.2 1
09 23.06 СЗ 1 16 км осадки на расстоянии {ливн. осадки, туман} 10/5 450 м
[Cb cap Ac As]
+27.0 +24.9 88 +39 +39 очень
душно
1009.5 1002.6 0.4
12 23.06 З 3 16 км осадки на расстоянии {ливн. осадки, туман} 8/5 450 м
[Cb cap Ac As]
+26.2 +25.2 94 +38 +38 очень
душно
1010.8 1004.0 +30.0 0.7
15 23.06 СЗ 2 14 км осадки на расстоянии 6/4 450 м
[Cb cap Ac As]
+26.7 +25.8 95 +40 +40 очень
душно
1011.0 1004.1
18 23.06 СЗ 2 16 км осадки на расстоянии 6/3 450 м
[Cb cap Ac As]
+26.8 +25.8 94 +40 +40 очень
душно
1010.4 1003.6
21 23.06 СЗ 2 16 км осадки на расстоянии 8/4 450 м
[Cb cap Ac As Cs]
+27.0 +26.0 94 +40 +40 очень
душно
1011.0 1004.1
00 24.06 З 2 18 км мгла {туман} 9/3 450 м
[Cb cap Ac As Cs]
+27.5 +26.2 93 +42 +45 опасность
перегрева
1012.8 1006.0 +25.4 2
03 24.06 ЮЗ 4 20 км мгла {туман} 10/3 450 м
[Cb cap Ac As]
+29.5 +26.3 83 +45 +48 опасность
перегрева
1012.3 1005.5
06 24.06 ЮЗ 3 18 км осадки на расстоянии {туман} 9/4 450 м
[Cb cap Ac As Cs]
+30.5 +26.6 80 +47 +51 опасность
перегрева
1010.9 1004.1
09 24.06 ЮЗ 3 16 км осадки на расстоянии {гроза} 10/6 450 м
[Cb cap Ac As]
+25.1 +24.6 97 +35 +35 очень
душно
1011.9 1005.0 12
12 24.06 З 3 14 км в посл. час ливневой дождь {гроза} 10/6 450 м
[Cb cap Ac As]
+25.8 +24.9 95 +37 +37 очень
душно
1012.6 1005.8 +32.0 13
15 24.06 З 3 14 км осадки на расстоянии 10/6 450 м
[Cb cap Ac As]
+25.2 +24.7 97 +35 +35 очень
душно
1012.4 1005.5
18 24.06 З 3 16 км осадки на расстоянии 8/5 450 м
[Cb cap Ac As]
+25.8 +24.2 91 +36 +36 очень
душно
1010.7 1003.9
21 24.06 З 3 16 км осадки на расстоянии 9/4 450 м
[Cb cap Ac trans]
+26.0 +24.7 93 +37 +37 очень
душно
1011.5 1004.6
00 25.06 ЮЗ 3 18 км мгла 8/4 450 м
[Cb cap Ac trans Cc]
+27.4 +25.8 91 +41 +43 опасность
перегрева
1013.1 1006.3 +23.5 13
03 25.06 ЮЗ 5 18 км мгла {туман} 6/4 450 м
[Cb calv Ac trans Cc]
+29.8 +26.4 82 +46 +51 опасность
перегрева
1012.4 1005.6
06 25.06 ЮЗ 4 18 км мгла {туман} 6/4 450 м
[Cb cap Ci fib]
+30.6 +25.9 76 +46 +51 опасность
перегрева
1011.6 1004.8
09 25.06 СВ 3 18 км осадки на расстоянии {туман} 9/5 450 м
[Cb cap Ac trans Cc]
+29.6 +25.0 76 +42 +43 опасность
перегрева
1011.2 1004.4

 

Местоположение метеостанции Гуиуан (Филиппины): широта 11.03 долгота 125.73 высота над уровнем моря 60 м.

В архиве по умолчанию представлена погода в Гуиуане за последнюю неделю. Архивные данные за месяц целиком и за предыдущие месяцы, начиная с января 2011 года, Вы можете получить, выбрав интересующий диапазон дат из раскрывающегося списка и нажав кнопку "Ввод!".


*Определитесь, кто Вы:
робот инопланетянин человек

Внимание! Время в таблицах - всемирное. Для получения местного времени необходимо прибавить поправку, которая равна 8 ч.

Смотрите также архив погоды в соседних городах и на ближайших метеорологических станциях:

Погода в Боронган Сити (Филиппины) (76 км)
Погода в Таклобане (Филиппины) (83 км)
Погода в Катбалогане (Филиппины) (125 км)
Погода в Серигао Сити (Филиппины) (139 км)
Погода в Маасине (Филиппины) (140 км)
Погода в Катармане (Филиппины) (203 км)
Погода в Мактане (Филиппины) (210 км)
Погода в Бутуане (Филиппины) (235 км)
Погода в Тагбиларане (Филиппины) (260 км)
Погода в Масбате (Филиппины) (275 км)

Пояснения к столбцам:

Ветер - указаны скорость ветра в м/с - средняя за 10 мин, порывы в срок и между сроками (в фигурных скобках) и направление, откуда дует ветер: С - северный, СВ - северо-восточный, В - восточный, ЮВ - юго-восточный, Ю - южный, ЮЗ - юго-западный, З - западный, СЗ - северо-западный.
Видимость - горизонтальная дальность видимости в метрах или километрах. При видимости от 1 до 10 км при отсутствии осадков обычно наблюдается дымка, при ухудшении видимости до 1 км и менее - туман. В сухую погоду видимость может ухудшаться дымом, пылью или мглою.
Явления - указаны атмосферные явления, наблюдавшиеся в срок или в последний час перед сроком; фигурными скобками обозначены явления, наблюдавшиеся между сроками (за 1-3 часа до срока); квадратными скобками обозначены град или гололедные отложения с указанием их диаметра в мм.
Облачность - указаны через наклонную черту общая и нижняя облачность в баллах и высота нижней границы облаков в метрах; квадратными скобками обозначены формы облаков: Ci - перистые, Cs - перисто-слоистые, Cc - перисто-кучевые, Ac - высококучевые, As - высокослоистые, Sc - слоисто-кучевые, Ns - слоисто-дождевые, Cu - кучевые, Cb - кучево-дождевые. Подробнее классификацию облаков см. в Атласе облаков (PDF).
T - Температура воздуха - температура, измеренная на высоте 2 м над землей.
Td - Температура точки росы - температура, при понижении до которой содержащийся в воздухе водяной пар достигнет насыщения.
f - Относительная влажность воздуха - влажноcть воздуха, измеренная на высоте 2 м над землей.
Te - Эффективная температура - температура, которую ощущает одетый по сезону человек в тени. Характеристика душности погоды. При расчете учитывается влияние влажности воздуха и скорости ветра на теплоощущения человека.
Tes - Эффективная температура на солнце - температура, которую ощущает человек, с поправкой на солнечный нагрев. Характеристика знойности погоды. Зависит от высоты солнца над горизонтом, облачности и скорости ветра. Ночью, в пасмурную погоду, а также при ветре 12 м/с и более поправка равна нулю.
P - Атмосферное давление - приведенное к уровню моря атмосферное давление.
Po - Атмосферное давление - измеренное на уровне метеостанции атмосферное давление.
Tmin - Минимальная температура - минимум температуры воздуха на высоте 2 м над землей.
Tmax - Максимальная температура - максимум температуры воздуха на высоте 2 м над землей.
R - Количество осадков - Количество выпавших осадков за период времени, мм. При наведении курсора мыши на число - период времени, за который выпало указанное количество осадков.
R24 - Количество осадков - Количество выпавших осадков за 24 часа, мм.
S - Снежный покров - Высота снежного покрова, см. При наведении курсора мыши на число - состояние снежного покрова и степень покрытия местности в баллах.